STARLINK-32225, 62036

Orbit data source: Space-Track

STARLINK-32225, 62036 is a payload satellite owned by SpaceX/Seattle (US) in LEO that was launched on Thu, 21 Nov 2024 UTC via an FALCON 9 launch vehicle from the Air Force Eastern Test Range (AFETR). Payload-class satellites include a variety of spacecraft equipped with specific instruments for various scientific and technological missions. These include communications satellites like Starlink; space stations such as the ISS; scientific satellites like the Hubble; Earth observation satellites from companies like Planet Labs, Umbra, and HawkEye 360; GPS; miniature CubeSats for education and research; and military/defense satellites.

Loading next visibility...
Identifier
62036, 2024-216E
Orbit
LEO
Country
Flag of USUS
Related business
Manufacturer
SpaceX/Seattle
Mission
Operational Commercial Communications
Bus & Motor
STARLINK V2M, Unknown motor
Mass
730 kg wet, ~700 kg dry
Launch date (UTC)
2024-11-21 (2 years ago)
Launch vehicle
FALCON 9
Launch site
Air Force Eastern Test Range (AFETR)
Object type
Payload
Rocket body
Debris
Shape & HBR
Box + 2 Pan, 17.7 m
Radar Cross Section
33.884 m², Large (>1 m²)

Expand to show TLE details & history
Last TLE update: 12 hours ago

TLE from 12 hours ago
0 STARLINK-32225
1 62036U 24216E   26177.55768502  .00022738  00000-0  83382-3 0  9992
2 62036  43.0005   1.6653 0000803 302.8368  57.2407 15.27557067 90596
Epoch: 2026-06-26T13:23Z
TLE epoch observation values (Epoch: 2026-06-26T13:23:03.985Z)
Latitude
0.00002°
Longitude
-113.78576°
Altitude
482.595 km
Speed
7.626 km/s
True Right ascension
00h 06m 39s
True Declination
0° 00' 00"
Sunlit
Object was in daylight at epoch
Visualization orbit readout
Latitude
Unknown
Longitude
Unknown
Altitude
Unknown
Speed
Unknown
Apparent Right ascension
Unknown
Apparent Declination
Unknown
Sunlit
N/A
Visualization observer readout
Local Sidereal Time
12:33:24
Azimuth
Unknown
Elevation
Unknown
Doppler factor
Unknown
Orbital elements
Apogee altitude
485.614 km
Perigee altitude
484.512 km
Semi-major axis
6,863.2 km
Eccentricity
0.00008
Inclination
43.0005°
RAAN
1.6653°
Arg. of periapsis
302.8368°
True anomaly
57.24844°
Mean anomaly
57.2407°
Eccentric anomaly
57.24457°
Mean motion
3.81727 °/min
Orbital period
94.31 mins
BSTAR
0.00083382
Loading maneuver chart data...
Computing Atmospheric mass density...
Loading historical data...
Loading historical data...
Loading historical data...
Loading historical data...
Loading historical data...
Loading historical data...
Loading historical data...

Documentation

Showing up to 5 results
|